Flag for France Weather past 2 weeks in Mulhouse, France

Now
66 °F

Clear.


Feels Like: 66 °F
Forecast: 55 / 69 °F
Wind: 3 mph from East

Location: Luxeuil

Current Time: Sep 1, 2015 at 4:44:31 AM

Latest Report: Sep 1, 2015 at 4:00 AM


Visibility: 10 mi

Pressure: 29.86 "Hg

Humidity: 83%

Dew point: 61 °F

Location of MulhouseLocation

Historic Weather in Mulhouse — Graph

°F

Mulhouse temperature yesterday

Maximum temperature yesterday: 91 °F (at 2:30 PM)
Minimum temperature yesterday: 59 °F (at 7:00 AM)
Average temperature yesterday: 76 °F

Past Weeks' High & Low Weather Summary

 TemperatureHumidityPressure
High93 °F (Aug 30, 4:00 PM)100% (Aug 18, 7:00 AM)30.24 "Hg (Aug 18, 7:00 AM)
Low46 °F (Aug 18, 5:00 AM)26% (Aug 30, 4:00 PM)29.68 "Hg (Aug 24, 4:30 AM)
Average68 °F67%30.02 "Hg
* Reported Aug 17 3:00 AM — Sep 1 3:30 AM, Mulhouse, Weather by CustomWeather, © 2015

Note: Actual official high and low records may vary slightly from our data, if they occured in-between our weather recording intervals... More about our weather records

Advertising

Mulhouse weather history for previous 24 hours

 ConditionsComfort  
Time TempWeatherWind HumidityBarometerVisibility
3:30 AM
Tue, Sep 1
66 °FClear.2 mph83%29.89 "Hg10 mi
3:00 AM70 °FMild.2 mph73%29.89 "HgN/A
2:30 AM72 °FMild.5 mph69%29.89 "HgN/A
2:00 AM70 °FMild.6 mph73%29.89 "HgN/A
1:30 AM70 °FClear.5 mph73%29.89 "Hg10 mi
1:00 AM72 °FClear.3 mph73%29.89 "Hg10 mi
11:30 PM
Mon, Aug 31
72 °FClear.5 mph69%29.89 "Hg10 mi
11:00 PM73 °FClear.5 mph65%29.89 "Hg10 mi
10:30 PM73 °FClear.3 mph65%29.89 "Hg10 mi
10:00 PM75 °FClear.3 mph61%29.89 "Hg10 mi
9:30 PM79 °FThundershowers. Overcast.10 mph51%29.92 "HgN/A
9:00 PM81 °FThundershowers. Cloudy.7 mph39%29.89 "HgN/A
8:30 PM81 °FWarm.3 mph42%29.89 "HgN/A
8:00 PM82 °FSunny.5 mph40%29.89 "Hg10 mi
7:30 PM84 °FSunny.7 mph35%29.89 "Hg10 mi
7:00 PM88 °FSunny.9 mph33%29.89 "Hg10 mi
6:30 PM88 °FSunny.12 mph33%29.89 "Hg10 mi
6:00 PM90 °FPassing clouds.14 mph31%29.89 "HgN/A
5:30 PM90 °FPassing clouds.16 mph31%29.89 "HgN/A
5:00 PM90 °FSunny.17 mph31%29.92 "Hg10 mi
4:30 PM91 °FPassing clouds.16 mph28%29.92 "HgN/A
4:00 PM91 °FSunny.18 mph28%29.92 "Hg10 mi
3:30 PM91 °FPassing clouds.16 mph28%29.92 "HgN/A
3:00 PM91 °FPassing clouds.14 mph28%29.92 "HgN/A
2:30 PM91 °FPassing clouds.16 mph30%29.95 "HgN/A
2:00 PM90 °FPassing clouds.15 mph29%29.95 "HgN/A
1:30 PM88 °FPassing clouds.15 mph31%29.95 "HgN/A
1:00 PM88 °FPassing clouds.14 mph31%29.98 "HgN/A
12:30 PM88 °FSunny.15 mph29%29.98 "Hg10 mi
12:00 PM86 °FPassing clouds.15 mph31%29.98 "HgN/A
11:30 AM84 °FPassing clouds.10 mph33%29.98 "HgN/A
11:00 AM82 °FSunny.8 mph40%29.98 "Hg10 mi
10:30 AM81 °FSunny.9 mph45%30.01 "Hg10 mi
10:00 AM77 °FSunny.8 mph54%29.98 "Hg10 mi
9:30 AM75 °FPassing clouds.3 mph57%30.01 "HgN/A
9:00 AM70 °FPassing clouds.3 mph69%30.01 "HgN/A
8:30 AM66 °FMild.5 mph73%30.01 "HgN/A
8:00 AM63 °FSunny.3 mph77%30.01 "Hg10 mi
7:30 AM63 °FClear.5 mph77%30.01 "Hg10 mi
7:00 AM59 °FPassing clouds.5 mph88%30.01 "HgN/A
6:30 AM61 °FClear.6 mph83%30.01 "Hg10 mi
6:00 AM64 °FClear.1 mph73%30.01 "Hg10 mi
5:30 AM64 °FClear.3 mph73%30.04 "Hg10 mi
5:00 AM61 °FPassing clouds.3 mph88%30.04 "HgN/A
4:30 AM61 °FPassing clouds.3 mph88%30.04 "HgN/A
4:00 AM63 °FClear.6 mph88%30.04 "Hg10 mi
Weather by CustomWeather, © 2015

See weather overviewHow to use our weather pages